Wind_Speed
23 25 27 28 31 34 36 34 35 35 35 34 32 32 34 36 40 41 44 43 39 36 32 32 31 29 29 30 30 28 27 26
23 24 26 26 29 31 34 36 37 34 34 34 33 34 36 37 40 42 42 43 44 43 35 35 34 33 33 32 31 31 28 28
19 19 21 23 25 29 33 35 35 36 35 36 34 36 35 37 36 36 41 44 45 45 41 40 40 33 33 35 35 33 30 34
15 12 11 11 16 23 28 33 34 35 35 33 30 29 28 27 31 35 42 46 47 46 43 42 45 35 37 39 39 39 33 35
6 9 8 7 5 7 17 27 30 32 34 32 34 29 25 30 33 36 38 45 46 49 47 45 45 40 36 41 40 40 33 37
7 7 7 7 4 3 4 15 25 30 31 33 33 32 32 31 31 32 35 38 44 47 47 45 45 44 41 42 41 43 39 38
6 5 4 7 7 5 5 7 16 23 25 34 33 33 32 30 31 30 33 35 40 45 48 46 45 46 43 44 46 45 42 39
7 4 3 4 6 6 3 4 9 16 24 30 34 35 34 34 33 34 33 33 36 40 47 46 48 49 47 45 46 45 47 43
8 5 3 4 4 5 4 3 2 6 15 25 33 35 35 37 34 29 33 36 38 41 43 46 44 43 44 44 44 45 46 44
7 6 6 6 6 6 4 4 4 3 6 13 23 32 38 36 38 37 34 35 34 39 44 47 46 45 43 42 44 45 45 46
8 7 7 9 9 7 7 6 6 7 8 8 12 24 31 37 36 37 36 33 35 38 44 46 44 46 48 46 42 40 41 42
11 10 11 11 11 12 10 8 7 9 8 9 11 13 22 30 35 36 38 34 34 37 43 44 46 44 44 45 46 44 46 43
11 9 8 11 13 14 14 12 10 10 11 11 11 13 13 20 28 29 35 37 36 38 39 43 47 47 47 47 47 45 46 47
11 12 10 8 10 13 18 17 15 13 13 12 12 12 12 14 14 26 32 34 36 36 41 44 46 48 49 52 53 51 48 49
5 4 7 11 13 11 13 17 20 19 17 15 14 12 13 14 17 20 21 33 37 38 42 41 42 45 48 51 52 49 47 47
4 5 5 10 15 18 15 16 17 19 19 19 17 15 13 12 14 16 17 17 23 36 39 42 44 46 47 47 46 45 43 42
4 7 9 9 14 17 19 19 19 19 19 20 19 19 15 9 11 11 16 19 23 24 25 30 33 36 40 48 46 41 41 39
6 8 7 7 12 16 18 21 22 21 19 22 20 18 17 11 9 7 8 15 18 21 26 30 28 29 33 36 37 27 27 31
8 9 9 10 12 15 18 19 18 19 21 22 22 18 14 12 8 7 7 10 12 18 22 24 25 26 26 26 31 27 28 31
Wind_Direction
237 231 231 232 230 225 224 216 213 209 206 206 205 203 201 198 199 198 195 195 193 193 196 192 185 188 188 185 183 184 181 177
236 235 237 233 235 229 221 219 213 209 204 199 198 197 197 198 200 200 196 196 193 191 189 185 187 192 190 185 182 180 180 176
239 235 237 235 232 229 226 220 216 211 204 203 204 205 204 205 203 200 197 196 196 195 191 187 190 191 188 185 183 180 183 178
226 217 213 220 236 230 225 221 218 213 207 205 203 204 208 204 202 201 199 199 200 198 195 193 194 191 188 186 185 182 179 183
166 190 188 188 189 230 234 223 220 214 206 202 197 195 196 203 204 204 203 201 200 201 199 198 198 192 192 190 188 186 182 188
158 145 137 121 116 126 220 227 219 215 205 203 203 204 206 205 206 207 203 202 202 201 201 199 196 195 196 193 192 193 196 191
109 97 107 106 94 87 122 184 221 218 209 205 204 210 208 206 201 204 205 202 202 202 201 201 200 199 198 198 198 197 199 200
100 63 53 59 70 73 86 135 193 218 215 215 211 211 213 214 213 207 208 206 204 205 202 202 202 203 203 201 201 202 204 202
92 78 33 23 42 48 30 8 182 201 227 221 217 217 218 220 218 211 211 209 205 206 205 207 206 207 205 204 205 206 207 209
60 43 39 20 14 25 16 346 321 265 230 232 241 224 222 221 221 219 216 212 210 205 204 205 206 204 205 204 206 208 206 210
24 26 14 12 5 357 356 347 339 318 293 266 243 242 233 226 223 222 220 217 212 204 204 205 207 206 204 202 207 211 211 210
1 4 4 358 350 353 355 352 335 322 307 299 287 274 244 236 226 222 220 217 210 206 203 203 205 206 205 204 206 206 205 210
347 356 1 347 341 339 344 346 343 322 313 305 301 295 279 249 235 230 220 216 214 209 203 202 203 205 204 203 206 209 207 207
322 338 344 349 349 341 333 334 335 326 307 305 298 300 301 284 289 243 225 216 212 209 206 204 203 204 204 207 210 210 212 211
282 293 334 338 337 341 329 321 321 323 313 306 297 291 296 292 288 288 256 222 218 211 207 205 206 207 207 209 211 214 214 213
276 311 346 335 344 341 332 317 311 311 307 297 296 290 287 292 295 277 277 264 238 213 208 209 209 210 211 212 214 214 212 210
304 320 319 329 331 335 327 314 306 309 303 294 293 294 294 283 290 281 266 259 251 239 221 215 212 215 217 217 214 211 207 205
305 302 310 305 315 321 322 312 306 302 298 289 284 281 281 283 280 269 261 257 246 237 230 224 218 218 220 221 220 210 206 208
304 299 297 305 307 310 309 300 297 289 288 282 279 274 271 280 278 290 253 244 242 232 223 222 219 218 217 213 206 198 197 199
Height
667 672 676 678 681 685 691 695 702 707 714 720 725 730 733 738 742 747 754 761 768 776 783 788 792 799 803 806 812 818 823 829
656 663 667 671 674 677 681 686 691 700 704 709 715 717 723 727 732 738 745 752 758 766 773 779 784 790 795 801 807 813 819 825
651 655 661 665 668 671 673 677 684 690 695 699 706 711 716 720 726 731 736 743 749 756 762 767 774 782 788 793 799 806 813 817
640 647 653 659 663 665 668 670 674 682 688 695 700 707 714 717 719 723 726 733 739 747 754 760 766 774 778 783 789 793 800 810
646 652 655 657 660 663 664 665 668 674 682 688 689 692 697 702 709 714 720 725 730 737 744 750 757 764 771 774 782 786 792 796
654 654 655 656 659 659 661 662 663 666 673 680 685 687 691 696 702 708 713 717 722 729 735 741 747 754 760 765 773 777 780 786
658 660 659 655 655 659 659 659 661 664 668 673 678 682 685 689 693 698 703 708 713 718 726 732 738 743 751 756 761 767 771 777
657 662 661 660 656 656 658 657 658 661 664 668 672 675 680 683 686 689 695 700 704 709 715 721 726 731 739 745 752 756 762 765
659 661 666 664 660 658 658 658 656 657 660 661 664 669 672 675 679 682 685 688 692 701 707 714 720 727 732 738 744 748 754 758
664 665 664 666 664 661 658 659 659 657 656 657 659 659 663 665 668 673 677 682 686 690 695 703 709 716 722 728 733 737 741 749
668 665 668 667 668 665 660 658 656 655 658 656 653 655 653 657 661 663 668 674 678 679 686 692 700 705 710 716 723 729 735 738
670 665 665 666 667 668 664 659 655 656 654 654 653 650 649 648 649 654 658 664 668 671 675 682 688 695 701 706 710 716 720 728
678 671 669 669 666 666 665 659 655 654 654 651 649 649 646 644 643 646 649 652 659 662 667 671 676 683 689 693 699 703 706 711
684 675 671 668 665 663 660 659 655 652 653 650 647 645 643 641 639 639 640 644 647 651 656 660 665 670 675 679 684 689 694 699
683 678 672 667 665 660 660 659 655 649 648 647 644 642 641 636 635 634 633 636 639 641 644 650 655 660 664 667 671 677 681 686
677 674 667 669 661 656 653 657 657 652 647 644 642 640 638 634 629 629 630 629 629 631 635 639 645 650 653 658 662 666 671 676
669 668 666 665 660 655 654 653 652 649 643 639 638 637 634 631 626 624 625 625 628 629 630 633 635 642 643 648 651 655 659 665
665 667 664 663 658 655 649 650 646 642 640 639 637 634 633 627 627 618 619 625 624 624 627 632 631 634 638 642 649 655 657 663
664 665 661 656 652 652 651 650 644 639 637 636 635 632 627 621 620 618 616 622 619 622 624 627 629 631 634 639 646 650 654 659